Kiruna, Sweden

12:25 AM CET on November 25, 2017 (GMT +0100)
Kiruna

Weather History for ESNQ - October, 2012

Change the Weather History Date:

Wednesday, October 3, 2012

  Actual Average Record
Temperature  
Mean Temperature 42 °F -  
Max Temperature 50 °F - - ()
Min Temperature 32 °F - - ()
Degree Days  
Heating Degree Days 24    
Moisture  
Dew Point 37 °F    
Average Humidity 84    
Maximum Humidity 100    
Minimum Humidity 58    
Precipitation  
Precipitation 0.00 in - - ()
Sea Level Pressure  
Sea Level Pressure 29.59 in    
Wind  
Wind Speed 6 mph ()    
Max Wind Speed 14 mph    
Max Gust Speed -    
Visibility 6.1 miles    
Events      
T = Trace of Precipitation, MM = Missing Value Source: Averaged Metar Reports

Daily Weather History Graph

Daily Weather History Graph

Search for Another Location

Airport or City:

Trip Planner

Search our weather history database for the weather conditions in past years. The results will help you decide how hot, cold, wet, or windy it might be!

Date:

Astronomy

Oct. 03, 2012 Rise Set
Actual Time 6:59 AM CEST 5:54 PM CEST
Civil Twilight 6:04 AM CEST 6:48 PM CEST
Nautical Twilight 4:59 AM CEST 7:53 PM CEST
Astronomical Twilight 3:46 AM CEST 9:05 PM CEST
Moon 5:23 PM CEST (10/3) 12:12 PM CEST (10/3)
Length of Visible Light 12h 44m
Length of Day
10h 54m
Waning Gibbous, 90% of the Moon is Illuminated
Oct 3
Waning Gibbous
Oct 8
Last Quarter
Oct 15
New
Oct 22
First Quarter
Oct 29
Full

Hourly Weather History & Observations

Time (CEST) Temp. Windchill Dew Point Humidity Pressure Visibility Wind Dir Wind Speed Gust Speed Precip Events Conditions
12:20 AM 39.2 °F 37.0 °F 39.2 °F 100% 29.56 in 3.1 mi South 3.5 mph - N/A   Overcast
12:50 AM 39.2 °F 37.0 °F 39.2 °F 100% 29.56 in 6.2 mi ESE 3.5 mph - N/A   Overcast
1:20 AM 41.0 °F 38.0 °F 41.0 °F 100% 29.56 in 6.2 mi South 4.6 mph - N/A   Overcast
1:50 AM 41.0 °F 39.0 °F 41.0 °F 100% 29.56 in 6.2 mi South 3.5 mph - N/A   Overcast
2:20 AM 42.8 °F 38.0 °F 41.0 °F 93% 29.56 in 6.2 mi South 8.1 mph - N/A   Overcast
2:50 AM 41.0 °F 37.1 °F 41.0 °F 100% 29.53 in 6.2 mi South 5.8 mph - N/A   Scattered Clouds
3:20 AM 41.0 °F 35.8 °F 41.0 °F 100% 29.53 in 6.2 mi South 8.1 mph - N/A   Mostly Cloudy
3:50 AM 41.0 °F 39.0 °F 41.0 °F 100% 29.53 in 6.2 mi South 3.5 mph - N/A   Overcast
4:20 AM 41.0 °F 37.1 °F 41.0 °F 100% 29.53 in 6.2 mi South 5.8 mph - N/A   Mostly Cloudy
4:50 AM 41.0 °F 39.0 °F 41.0 °F 100% 29.53 in 6.2 mi South 3.5 mph - N/A   Overcast
5:20 AM 41.0 °F 36.4 °F 41.0 °F 100% 29.53 in 6.2 mi SSW 6.9 mph - N/A   Mostly Cloudy
5:50 AM 41.0 °F 37.1 °F 39.2 °F 93% 29.53 in 6.2 mi SSW 5.8 mph - N/A   Mostly Cloudy
6:20 AM 39.2 °F 34.2 °F 37.4 °F 93% 29.53 in 6.2 mi SSW 6.9 mph - N/A   Scattered Clouds
6:50 AM 39.2 °F 35.0 °F 37.4 °F 93% 29.53 in 6.2 mi SW 5.8 mph - N/A   Scattered Clouds
7:20 AM 37.4 °F 30.8 °F 37.4 °F 100% 29.53 in 6.2 mi SSW 9.2 mph - N/A   Partly Cloudy
7:50 AM 37.4 °F 31.4 °F 35.6 °F 93% 29.53 in 6.2 mi SW 8.1 mph - N/A   Partly Cloudy
8:20 AM 37.4 °F 30.8 °F 35.6 °F 93% 29.53 in - SW 9.2 mph - N/A   Clear
8:50 AM 39.2 °F 33.6 °F 37.4 °F 93% 29.56 in - SSW 8.1 mph - N/A   Clear
9:20 AM 39.2 °F 34.2 °F 37.4 °F 93% 29.56 in - SW 6.9 mph - N/A   Clear
9:50 AM 41.0 °F 35.8 °F 37.4 °F 87% 29.56 in 6.2 mi SW 8.1 mph - N/A   Partly Cloudy
10:20 AM 42.8 °F 39.3 °F 37.4 °F 81% 29.56 in 6.2 mi SSW 5.8 mph - N/A   Partly Cloudy
10:50 AM 44.6 °F 41.4 °F 39.2 °F 81% 29.59 in 6.2 mi SSW 5.8 mph - N/A   Partly Cloudy
11:20 AM 46.4 °F 41.9 °F 39.2 °F 76% 29.59 in - WSW 9.2 mph - N/A   Clear
11:50 AM 48.2 °F - 39.2 °F 71% 29.59 in - WSW 11.5 mph - N/A   Clear
12:20 PM 48.2 °F - 37.4 °F 66% 29.59 in 6.2 mi WSW 12.7 mph - N/A   Partly Cloudy
12:50 PM 50.0 °F - 37.4 °F 62% 29.59 in - WSW 11.5 mph - N/A   Clear
1:20 PM 50.0 °F - 37.4 °F 62% 29.62 in 6.2 mi West 11.5 mph - N/A   Partly Cloudy
1:50 PM 50.0 °F - 37.4 °F 62% 29.62 in 6.2 mi WSW 12.7 mph - N/A   Partly Cloudy
2:20 PM 50.0 °F - 37.4 °F 62% 29.62 in 6.2 mi WSW 12.7 mph - N/A   Partly Cloudy
2:50 PM 50.0 °F - 35.6 °F 58% 29.62 in 6.2 mi WSW 9.2 mph - N/A   Partly Cloudy
3:20 PM 50.0 °F - 37.4 °F 62% 29.62 in 6.2 mi SW 12.7 mph - N/A   Partly Cloudy
4:20 PM 50.0 °F - 37.4 °F 62% 29.65 in - WSW 13.8 mph - N/A   Clear
4:50 PM 48.2 °F - 37.4 °F 66% 29.65 in - WSW 12.7 mph - N/A   Clear
5:20 PM 46.4 °F 41.9 °F 37.4 °F 71% 29.65 in - SW 9.2 mph - N/A   Clear
5:50 PM 42.8 °F 37.5 °F 35.6 °F 76% 29.65 in - WSW 9.2 mph - N/A   Clear
6:20 PM 44.6 °F 39.2 °F 35.6 °F 71% 29.65 in - SW 10.4 mph - N/A   Clear
6:50 PM 41.0 °F 34.7 °F 35.6 °F 81% 29.65 in 6.2 mi SSW 10.4 mph - N/A   Unknown
7:20 PM 41.0 °F 34.7 °F 35.6 °F 81% 29.65 in 6.2 mi SW 10.4 mph - N/A   Unknown
7:50 PM 41.0 °F 35.2 °F 35.6 °F 81% 29.65 in - SSW 9.2 mph - N/A   Clear
8:20 PM 39.2 °F 37.0 °F 33.8 °F 81% 29.68 in - WSW 3.5 mph - N/A   Clear
8:50 PM 37.4 °F 34.9 °F 33.8 °F 87% 29.65 in - SSW 3.5 mph - N/A   Clear
9:20 PM 39.2 °F 37.0 °F 35.6 °F 87% 29.65 in - SW 3.5 mph - N/A   Clear
9:50 PM 37.4 °F 32.8 °F 33.8 °F 87% 29.65 in - SW 5.8 mph - N/A   Clear
10:20 PM 33.8 °F 30.8 °F 30.2 °F 87% 29.65 in - SW 3.5 mph - N/A   Clear
10:50 PM 37.4 °F 31.4 °F 35.6 °F 93% 29.65 in 6.2 mi SW 8.1 mph - N/A   Unknown
11:20 PM 35.6 °F 31.7 °F 33.8 °F 93% 29.65 in 6.2 mi SW 4.6 mph - N/A   Unknown
11:50 PM 32.0 °F 27.5 °F 30.2 °F 93% 29.65 in 6.2 mi SSW 4.6 mph - N/A   Unknown